Regional Weather Roundup
Issued by NWS Albany, NY

Home | Current Version | Previous Version | Text Only | Print | Product List | Glossary On
Versions: 1 2 3 4 5 6 7 8 9 10 11 12 13 14 15 16 17 18 19 20 21 22 23 24 25 26 27
000
ASUS41 KALY 231610
RWRALY

NEW YORK STATE HOURLY WEATHER ROUNDUP
NATIONAL WEATHER SERVICE ALBANY NY
1200 PM EDT THU OCT 23 2014

NOTE: "FAIR" INDICATES FEW OR NO CLOUDS BELOW 12,000 FEET WITH NO
SIGNIFICANT WEATHER AND/OR NO OBSTRUCTIONS TO VISIBILITY.

NYZ032-033-038>043-046>054-057>066-NYZ062>081-231700-
EAST


CITY           SKY/WX    TMP DP  RH WIND       PRES   REMARKS
ALBANY         LGT RAIN  47  43  86 N12       29.84F
GLENS FALLS    RAIN      47  44  90 NE7       29.88R FOG
POUGHKEEPSIE   LGT RAIN  49  45  86 N16G23    29.76S FOG
MONTGOMERY     LGT RAIN  50  47  89 N5        29.75F
WHITE PLAINS   CLOUDY    49  45  86 N18G24    29.70R
ISLIP          LGT RAIN  54  48  80 N17G26    29.64R
NEW YORK CITY  LGT RAIN  52  47  83 N17G25    29.71S
CENTRAL PARK   LGT RAIN  50  46  86 MISG      29.75S FOG
$$

NYZ005>009-017-018-044>046-055-056-231700-
CENTRAL


CITY           SKY/WX    TMP DP  RH WIND       PRES   REMARKS
FULTON         MOSUNNY   54  40  59 N17G31    30.00S
SYRACUSE       PTSUNNY   52  40  63 NW18G24   29.97F
ROME           CLOUDY    48  40  73 N10G18    29.94F
ELMIRA         CLOUDY    51  43  74 N13G18    29.96F
BINGHAMTON     CLOUDY    45  40  82 N17G26    29.89S
MONTICELLO     CLOUDY    46  45  93 N15G22    29.80F
$$

NYZ026>034-041>043-231700-
NORTH


CITY           SKY/WX    TMP DP  RH WIND       PRES   REMARKS
WATERTOWN      SUNNY     54  37  52 NE17G28   30.00F
FORT DRUM      NOT AVBL
MASSENA        CLOUDY    51  38  60 NE15G23   30.05F
SARANAC LAKE   CLOUDY    40  37  89 NE9       29.95F WCI  34
PLATTSBURGH    LGT RAIN  44  42  93 N20       29.99F
$$

NYZ001>004-010>016-019>021-231700-
WEST


CITY           SKY/WX    TMP DP  RH WIND       PRES   REMARKS
NIAGARA FALLS  SUNNY     53  40  61 NW10      30.12F
BUFFALO        MOSUNNY   55  40  56 N12       30.11F
DUNKIRK        SUNNY     53  41  63 N9        30.14F
JAMESTOWN      SUNNY     50  37  62 N10G20    30.11S
WELLSVILLE     MOSUNNY   50  40  68 N12G22    30.03F
ROCHESTER      PTSUNNY   53  40  61 N14       30.07F
PENN YAN       CLOUDY    51  40  65 NW15G23   30.00F
$$

             KEY
       WCI = WIND CHILL INDEX
       VSB = VISIBILITY
       HX  = HEAT INDEX
$$



USA.gov is the U.S. government's official web portal to all federal, state and local government web resources and services.